SWR12R LSZH-EGLC

Flight info

Callsign SWR12R
Flight time 1h 7m
Altitude 35000
Route VEBIT1Y VEBIT T10 TORPA DCT REKLA DCT RLP DCT ROTSI DCT KOTUN DCT NURMO DCT VESAN DCT RATUK L613 SOVAT SOVAT1C
Aircraft BCS3/M-VGDW/C

Departure

Time 2026-04-26 08:49
Airport Zürich Airport (LSZH)

Arrival

Time 2026-04-26 09:56
Airport London City Airport (EGLC)
Time Latitude Longitude Altitude Speed Heading
2026-04-26 08:17 47.45421 8.55802 1398 ft 0 kts 186°
2026-04-26 08:42 47.45429 8.55803 1397 ft 2 kts 183°
2026-04-26 08:42 47.45442 8.55804 1405 ft 2 kts 181°
2026-04-26 08:42 47.45459 8.55805 1401 ft 2 kts 176°
2026-04-26 08:42 47.45475 8.55802 1400 ft 2 kts 169°
2026-04-26 08:43 47.45491 8.55795 1402 ft 2 kts 151°
2026-04-26 08:43 47.45496 8.55791 1400 ft 2 kts 137°
2026-04-26 08:43 47.45506 8.55771 1403 ft 2 kts 106°
2026-04-26 08:43 47.45508 8.55758 1402 ft 1 kts 97°
2026-04-26 08:44 47.45508 8.55757 1402 ft 0 kts 97°
2026-04-26 08:45 47.45506 8.55778 1402 ft 3 kts 97°
2026-04-26 08:45 47.45503 8.55815 1405 ft 4 kts 97°
2026-04-26 08:45 47.45501 8.55833 1399 ft 0 kts 97°
2026-04-26 08:46 47.45493 8.55942 1397 ft 17 kts 96°
2026-04-26 08:46 47.45483 8.56094 1397 ft 13 kts 95°
2026-04-26 08:46 47.45479 8.56199 1397 ft 8 kts 81°
2026-04-26 08:46 47.45505 8.56262 1401 ft 5 kts 51°
2026-04-26 08:47 47.45534 8.56317 1400 ft 6 kts 52°
2026-04-26 08:47 47.45563 8.56371 1397 ft 14 kts 52°
2026-04-26 08:47 47.45591 8.56539 1397 ft 15 kts 95°
2026-04-26 08:47 47.45580 8.56682 1404 ft 12 kts 96°
2026-04-26 08:48 47.45571 8.56799 1398 ft 14 kts 96°
2026-04-26 08:48 47.45570 8.56969 1398 ft 16 kts 67°
2026-04-26 08:48 47.45644 8.57006 1405 ft 10 kts 331°
2026-04-26 08:48 47.45666 8.56941 1403 ft 5 kts 281°
2026-04-26 08:49 47.45670 8.56896 1398 ft 23 kts 277°
2026-04-26 08:49 47.45719 8.56230 1407 ft 106 kts 277°
2026-04-26 08:49 47.45816 8.54781 1458 ft 171 kts 276°
2026-04-26 08:49 47.45912 8.53062 2585 ft 158 kts 277°
2026-04-26 08:50 47.46008 8.51416 3602 ft 168 kts 276°
2026-04-26 08:50 47.46061 8.49659 4484 ft 176 kts 262°
2026-04-26 08:50 47.45650 8.47732 4842 ft 225 kts 234°
2026-04-26 08:50 47.44523 8.45832 5076 ft 273 kts 223°
2026-04-26 08:51 47.42379 8.41073 6672 ft 281 kts 236°
2026-04-26 08:51 47.41160 8.38938 7957 ft 280 kts 223°
2026-04-26 08:51 47.39805 8.36780 8895 ft 294 kts 228°
2026-04-26 08:52 47.38604 8.34251 9790 ft 308 kts 240°
2026-04-26 08:52 47.37624 8.31370 10705 ft 320 kts 243°
2026-04-26 08:52 47.36645 8.28371 11684 ft 329 kts 243°
2026-04-26 08:52 47.35663 8.25425 12108 ft 331 kts 242°
2026-04-26 08:53 47.34572 8.22298 12562 ft 356 kts 241°
2026-04-26 08:53 47.33370 8.18964 13021 ft 380 kts 242°
2026-04-26 08:53 47.32127 8.15390 13484 ft 403 kts 243°
2026-04-26 08:53 47.30855 8.11780 13961 ft 397 kts 242°
2026-04-26 08:54 47.29519 8.08094 14391 ft 418 kts 243°
2026-04-26 08:54 47.28274 8.04188 14805 ft 423 kts 252°
2026-04-26 08:54 47.27860 7.99929 15234 ft 422 kts 271°
2026-04-26 08:54 47.28083 7.95609 15674 ft 425 kts 276°
2026-04-26 08:55 47.28436 7.91334 16129 ft 428 kts 277°
2026-04-26 08:55 47.28963 7.87019 16570 ft 430 kts 283°
2026-04-26 08:55 47.29779 7.82783 17038 ft 433 kts 285°
2026-04-26 08:55 47.30459 7.78438 17523 ft 437 kts 280°
2026-04-26 08:56 47.31118 7.74056 17984 ft 440 kts 284°
2026-04-26 08:56 47.31891 7.69683 18475 ft 443 kts 282°
2026-04-26 08:56 47.32560 7.65241 18897 ft 445 kts 283°
2026-04-26 08:56 47.33306 7.60794 19324 ft 448 kts 283°
2026-04-26 08:57 47.33994 7.56300 19753 ft 451 kts 282°
2026-04-26 08:57 47.34700 7.51854 20178 ft 453 kts 283°
2026-04-26 08:57 47.35431 7.47319 20627 ft 456 kts 282°
2026-04-26 08:57 47.36128 7.42741 21077 ft 459 kts 283°
2026-04-26 08:58 47.36871 7.38150 21535 ft 462 kts 283°
2026-04-26 08:58 47.37580 7.33522 22001 ft 464 kts 282°
2026-04-26 08:58 47.38310 7.28869 22474 ft 467 kts 283°
2026-04-26 08:58 47.39041 7.24192 22959 ft 470 kts 282°
2026-04-26 08:59 47.39763 7.19481 23447 ft 473 kts 282°
2026-04-26 08:59 47.40501 7.14800 23922 ft 476 kts 282°
2026-04-26 08:59 47.41226 7.10014 24344 ft 479 kts 282°
2026-04-26 08:59 47.41972 7.05218 24772 ft 481 kts 282°
2026-04-26 09:00 47.42711 7.00388 25196 ft 482 kts 282°
2026-04-26 09:00 47.43447 6.95548 25639 ft 485 kts 282°
2026-04-26 09:00 47.44199 6.90682 26081 ft 487 kts 282°
2026-04-26 09:00 47.44930 6.85787 26529 ft 489 kts 282°
2026-04-26 09:01 47.45686 6.80873 26982 ft 491 kts 282°
2026-04-26 09:01 47.46423 6.75958 27439 ft 490 kts 281°
2026-04-26 09:01 47.47151 6.71116 27904 ft 488 kts 282°
2026-04-26 09:01 47.47897 6.66233 28388 ft 486 kts 282°
2026-04-26 09:02 47.48416 6.61313 28892 ft 484 kts 274°
2026-04-26 09:02 47.48638 6.56366 29377 ft 482 kts 272°
2026-04-26 09:02 47.48970 6.51445 29890 ft 480 kts 277°
2026-04-26 09:02 47.49386 6.46560 30389 ft 478 kts 274°
2026-04-26 09:03 47.49647 6.41665 30823 ft 478 kts 275°
2026-04-26 09:03 47.50070 6.36797 31266 ft 477 kts 276°
2026-04-26 09:03 47.50350 6.31983 31717 ft 476 kts 274°
2026-04-26 09:03 47.50711 6.27123 32178 ft 475 kts 277°
2026-04-26 09:04 47.51063 6.22275 32651 ft 474 kts 274°
2026-04-26 09:04 47.51350 6.17430 33127 ft 473 kts 276°
2026-04-26 09:04 47.51743 6.12601 33616 ft 472 kts 275°
2026-04-26 09:04 47.52013 6.07765 34110 ft 471 kts 275°
2026-04-26 09:05 47.52376 6.02957 34563 ft 471 kts 276°
2026-04-26 09:05 47.52694 5.98134 34906 ft 472 kts 274°
2026-04-26 09:05 47.52986 5.93357 35053 ft 473 kts 276°
2026-04-26 09:05 47.53494 5.88548 35132 ft 474 kts 287°
2026-04-26 09:06 47.54887 5.84141 35215 ft 476 kts 302°
2026-04-26 09:06 47.58867 5.76300 35211 ft 478 kts 313°
2026-04-26 09:07 47.63462 5.69188 35207 ft 477 kts 309°
2026-04-26 09:07 47.67937 5.62015 35208 ft 477 kts 311°
2026-04-26 09:08 47.72401 5.54738 35212 ft 477 kts 313°
2026-04-26 09:08 47.76835 5.47443 35217 ft 476 kts 313°
2026-04-26 09:09 47.81271 5.40156 35215 ft 475 kts 312°
2026-04-26 09:09 47.85720 5.32903 35215 ft 474 kts 311°
2026-04-26 09:10 47.90149 5.25722 35215 ft 473 kts 310°
2026-04-26 09:10 47.94591 5.18486 35216 ft 473 kts 311°
2026-04-26 09:11 47.98992 5.11205 35215 ft 473 kts 312°
2026-04-26 09:11 48.03367 5.03897 35217 ft 472 kts 313°
2026-04-26 09:12 48.07721 4.96657 35225 ft 471 kts 311°
2026-04-26 09:12 48.12124 4.89404 35227 ft 470 kts 310°
2026-04-26 09:13 48.16515 4.82145 35228 ft 470 kts 311°
2026-04-26 09:13 48.20871 4.74849 35228 ft 469 kts 312°
2026-04-26 09:14 48.25175 4.67579 35231 ft 469 kts 312°
2026-04-26 09:14 48.29511 4.60278 35232 ft 469 kts 311°
2026-04-26 09:15 48.33867 4.52992 35235 ft 468 kts 310°
2026-04-26 09:15 48.38208 4.45703 35239 ft 468 kts 311°
2026-04-26 09:16 48.42517 4.38371 35243 ft 467 kts 312°
2026-04-26 09:16 48.46680 4.31249 35242 ft 467 kts 311°
2026-04-26 09:17 48.50990 4.23929 35243 ft 466 kts 310°
2026-04-26 09:17 48.55298 4.16625 35254 ft 466 kts 310°
2026-04-26 09:18 48.59579 4.09291 35260 ft 465 kts 311°
2026-04-26 09:18 48.63806 4.01981 35262 ft 465 kts 311°
2026-04-26 09:19 48.68067 3.94634 35258 ft 464 kts 311°
2026-04-26 09:19 48.72612 3.87719 35262 ft 464 kts 319°
2026-04-26 09:20 48.77709 3.81735 35264 ft 464 kts 327°
2026-04-26 09:20 48.83137 3.76559 35256 ft 464 kts 323°
2026-04-26 09:21 48.88559 3.71247 35259 ft 464 kts 324°
2026-04-26 09:21 48.93951 3.65864 35259 ft 464 kts 327°
2026-04-26 09:22 48.99322 3.60430 35260 ft 464 kts 327°
2026-04-26 09:22 49.04656 3.55048 35257 ft 463 kts 326°
2026-04-26 09:23 49.10050 3.49675 35259 ft 463 kts 324°
2026-04-26 09:23 49.15450 3.44311 35264 ft 463 kts 324°
2026-04-26 09:24 49.20827 3.38895 35263 ft 463 kts 326°
2026-04-26 09:24 49.26163 3.33447 35267 ft 463 kts 327°
2026-04-26 09:25 49.31485 3.28026 35267 ft 462 kts 326°
2026-04-26 09:25 49.36858 3.22608 35270 ft 462 kts 324°
2026-04-26 09:26 49.42227 3.17176 35269 ft 462 kts 325°
2026-04-26 09:26 49.47567 3.11698 35273 ft 462 kts 326°
2026-04-26 09:27 49.52863 3.06233 35272 ft 461 kts 326°
2026-04-26 09:27 49.58203 3.00762 35274 ft 461 kts 325°
2026-04-26 09:28 49.63543 2.95302 35275 ft 461 kts 325°
2026-04-26 09:28 49.68866 2.89805 35280 ft 460 kts 326°
2026-04-26 09:29 49.74137 2.84314 35285 ft 460 kts 326°
2026-04-26 09:29 49.79445 2.78793 35284 ft 460 kts 324°
2026-04-26 09:30 49.84650 2.73051 35295 ft 459 kts 319°
2026-04-26 09:30 49.89427 2.66491 35294 ft 459 kts 321°
2026-04-26 09:31 49.94236 2.60094 35291 ft 459 kts 319°
2026-04-26 09:31 49.99105 2.53701 35291 ft 458 kts 317°
2026-04-26 09:32 50.03976 2.47313 35290 ft 458 kts 317°
2026-04-26 09:32 50.08826 2.40872 35295 ft 458 kts 319°
2026-04-26 09:33 50.13640 2.34373 35296 ft 458 kts 320°
2026-04-26 09:33 50.18421 2.27905 35297 ft 458 kts 319°
2026-04-26 09:34 50.23258 2.21432 35302 ft 458 kts 318°
2026-04-26 09:34 50.28102 2.14970 35302 ft 458 kts 317°
2026-04-26 09:35 50.32923 2.08469 35306 ft 458 kts 319°
2026-04-26 09:35 50.37686 2.01961 35312 ft 458 kts 319°
2026-04-26 09:36 50.42488 1.95396 35314 ft 458 kts 319°
2026-04-26 09:36 50.47306 1.88864 35318 ft 458 kts 317°
2026-04-26 09:37 50.52066 1.82404 35323 ft 458 kts 318°
2026-04-26 09:37 50.56822 1.75853 35318 ft 458 kts 319°
2026-04-26 09:38 50.61617 1.69220 35317 ft 458 kts 318°
2026-04-26 09:38 50.66420 1.62618 35319 ft 458 kts 317°
2026-04-26 09:39 50.71228 1.56012 35319 ft 458 kts 317°
2026-04-26 09:39 50.76032 1.49393 35321 ft 459 kts 319°
2026-04-26 09:40 50.80734 1.42658 34961 ft 462 kts 319°
2026-04-26 09:40 50.83165 1.39346 34525 ft 461 kts 315°
2026-04-26 09:40 50.85523 1.35901 34055 ft 463 kts 322°
2026-04-26 09:40 50.88376 1.33504 33590 ft 471 kts 341°
2026-04-26 09:41 50.91613 1.32570 33092 ft 479 kts 355°
2026-04-26 09:41 50.94961 1.32725 32620 ft 482 kts 358°
2026-04-26 09:41 50.98318 1.32718 32140 ft 483 kts 355°
2026-04-26 09:41 51.01605 1.32214 31693 ft 481 kts 347°
2026-04-26 09:42 51.04886 1.31160 31239 ft 482 kts 346°
2026-04-26 09:42 51.08216 1.30414 30796 ft 485 kts 352°
2026-04-26 09:42 51.11561 1.29699 30351 ft 486 kts 347°
2026-04-26 09:42 51.14822 1.28343 29844 ft 483 kts 334°
2026-04-26 09:43 51.17636 1.25482 29351 ft 481 kts 316°
2026-04-26 09:43 51.19664 1.21279 28848 ft 481 kts 297°
2026-04-26 09:43 51.20702 1.16222 28370 ft 483 kts 282°
2026-04-26 09:43 51.21286 1.10930 27874 ft 485 kts 280°
2026-04-26 09:44 51.21935 1.05718 27411 ft 486 kts 283°
2026-04-26 09:44 51.22788 1.00506 26948 ft 486 kts 286°
2026-04-26 09:44 51.23832 0.95368 26491 ft 487 kts 289°
2026-04-26 09:44 51.24978 0.90286 26051 ft 486 kts 290°
2026-04-26 09:45 51.26163 0.85252 25558 ft 483 kts 290°
2026-04-26 09:45 51.27392 0.80290 25125 ft 479 kts 294°
2026-04-26 09:45 51.28940 0.75588 24643 ft 478 kts 298°
2026-04-26 09:45 51.30515 0.70922 23940 ft 475 kts 295°
2026-04-26 09:46 51.31883 0.66219 23121 ft 470 kts 296°
2026-04-26 09:46 51.33419 0.61639 22330 ft 465 kts 297°
2026-04-26 09:46 51.34814 0.57009 21544 ft 459 kts 294°
2026-04-26 09:46 51.36250 0.52470 20780 ft 456 kts 297°
2026-04-26 09:47 51.37685 0.47973 20046 ft 452 kts 294°
2026-04-26 09:47 51.39038 0.43465 19327 ft 448 kts 296°
2026-04-26 09:47 51.40470 0.39054 18626 ft 444 kts 296°
2026-04-26 09:47 51.41793 0.34687 17877 ft 427 kts 294°
2026-04-26 09:48 51.43071 0.30572 17097 ft 396 kts 296°
2026-04-26 09:48 51.44289 0.26934 16353 ft 356 kts 298°
2026-04-26 09:48 51.45439 0.23679 15611 ft 317 kts 298°
2026-04-26 09:48 51.46484 0.20780 15548 ft 289 kts 298°
2026-04-26 09:49 51.47455 0.18095 15384 ft 276 kts 298°
2026-04-26 09:49 51.48389 0.15522 15326 ft 252 kts 298°
2026-04-26 09:49 51.49245 0.13173 15139 ft 239 kts 298°
2026-04-26 09:49 51.50078 0.10893 14769 ft 233 kts 301°
2026-04-26 09:50 51.51187 0.09173 14472 ft 218 kts 321°
2026-04-26 09:50 51.52431 0.07783 13980 ft 217 kts 323°
2026-04-26 09:50 51.53667 0.06455 13453 ft 216 kts 323°
2026-04-26 09:50 51.54921 0.05138 12921 ft 215 kts 324°
2026-04-26 09:51 51.56158 0.03855 12550 ft 203 kts 324°
2026-04-26 09:51 51.57291 0.02611 12056 ft 190 kts 320°
2026-04-26 09:51 51.58185 0.01190 11511 ft 174 kts 302°
2026-04-26 09:51 51.58627 -0.00543 10935 ft 165 kts 280°
2026-04-26 09:52 51.58746 -0.02386 10204 ft 170 kts 269°
2026-04-26 09:52 51.58390 -0.06176 8588 ft 169 kts 246°
2026-04-26 09:52 51.57756 -0.07695 7620 ft 166 kts 225°
2026-04-26 09:53 51.56843 -0.08853 6675 ft 166 kts 211°
2026-04-26 09:53 51.55810 -0.09625 5709 ft 162 kts 197°
2026-04-26 09:53 51.54731 -0.10025 4768 ft 157 kts 182°
2026-04-26 09:53 51.53668 -0.09882 3868 ft 151 kts 164°
2026-04-26 09:54 51.52718 -0.09337 3147 ft 139 kts 148°
2026-04-26 09:54 51.51981 -0.08391 2537 ft 143 kts 129°
2026-04-26 09:54 51.51458 -0.07040 2321 ft 145 kts 115°
2026-04-26 09:54 51.51122 -0.05501 2216 ft 145 kts 105°
2026-04-26 09:55 51.50939 -0.03927 1949 ft 141 kts 99°
2026-04-26 09:55 51.50820 -0.02432 1525 ft 134 kts 97°
2026-04-26 09:55 51.50741 -0.00926 1143 ft 136 kts 94°
2026-04-26 09:55 51.50673 0.00594 912 ft 136 kts 94°
2026-04-26 09:56 51.50618 0.02083 517 ft 134 kts 91°
2026-04-26 09:56 51.50576 0.03567 211 ft 132 kts 91°
2026-04-26 09:56 51.50543 0.04935 32 ft 97 kts 92°
2026-04-26 09:56 51.50519 0.05661 24 ft 42 kts 93°
2026-04-26 09:57 51.50509 0.05976 24 ft 17 kts 92°
2026-04-26 09:57 51.50505 0.06159 27 ft 15 kts 92°
2026-04-26 09:57 51.50472 0.06321 30 ft 16 kts 143°
2026-04-26 09:57 51.50417 0.06457 29 ft 21 kts 96°
2026-04-26 09:58 51.50464 0.06581 31 ft 11 kts 349°
2026-04-26 09:58 51.50495 0.06442 31 ft 18 kts 274°
2026-04-26 09:58 51.50501 0.06219 28 ft 21 kts 272°
2026-04-26 09:58 51.50509 0.05973 24 ft 23 kts 273°
2026-04-26 09:59 51.50516 0.05718 27 ft 23 kts 271°
2026-04-26 09:59 51.50524 0.05474 27 ft 21 kts 273°
2026-04-26 09:59 51.50480 0.05298 29 ft 15 kts 229°
2026-04-26 09:59 51.50452 0.05174 29 ft 13 kts 270°
2026-04-26 10:00 51.50460 0.05024 29 ft 16 kts 274°
2026-04-26 10:00 51.50466 0.04851 31 ft 13 kts 273°
2026-04-26 10:00 51.50470 0.04733 31 ft 9 kts 272°
2026-04-26 10:00 51.50462 0.04709 30 ft 1 kts 204°
2026-04-26 10:01 51.50442 0.04710 30 ft 0 kts 181°